Time,TemperatureF,DewpointF,PressureIn,WindDirection,WindDirectionDegrees,WindSpeedMPH,WindSpeedGustMPH,Humidity,HourlyPrecipIn,Conditions,Clouds,dailyrainin,SoftwareType,DateUTC
2013-11-20 00:56:00,35.4,27.3,29.40,SSE,158,4.9,4.9,72,0.00,,,0.00,WUHU21623XXSP,2013-11-20 06:56:00,
2013-11-20 01:56:00,35.4,27.3,29.41,SE,135,6.9,6.9,72,0.00,,,0.00,WUHU21623XXSP,2013-11-20 07:56:00,
2013-11-20 02:56:00,36.3,27.9,29.38,SE,135,7.2,7.2,71,0.00,,,0.00,WUHU21623XXSP,2013-11-20 08:56:00,
2013-11-20 03:56:00,36.3,27.9,29.36,SSE,158,0.0,0.0,71,0.00,,,0.00,WUHU21623XXSP,2013-11-20 09:56:00,
2013-11-20 04:44:00,36.0,27.8,29.35,SE,135,5.6,5.6,72,0.00,,,0.00,WUHU21623XXSP,2013-11-20 10:44:00,
2013-11-20 04:45:00,36.0,27.8,29.35,SE,135,5.6,5.6,72,0.00,,,0.00,WUHU21623XXSP,2013-11-20 10:45:00,
2013-11-20 04:50:00,36.0,27.8,29.35,SE,135,4.7,5.6,72,0.00,,,0.00,WUHU21623XXSP,2013-11-20 10:50:00,
2013-11-20 04:55:00,36.0,27.8,29.34,SSE,157,5.8,8.9,72,0.00,,,0.00,WUHU21623XXSP,2013-11-20 10:55:00,
2013-11-20 05:00:00,36.0,27.8,29.34,SE,135,8.7,8.9,72,0.00,,,0.00,WUHU21623XXSP,2013-11-20 11:00:00,
2013-11-20 05:05:00,36.0,27.8,29.35,SE,135,6.0,8.7,72,0.00,,,0.00,WUHU21623XXSP,2013-11-20 11:05:00,
2013-11-20 05:10:00,36.0,27.8,29.35,East,90,6.3,11.6,72,0.00,,,0.00,WUHU21623XXSP,2013-11-20 11:10:00,
2013-11-20 05:15:00,36.0,27.8,29.35,South,180,6.0,11.6,72,0.00,,,0.00,WUHU21623XXSP,2013-11-20 11:15:00,
2013-11-20 05:20:00,35.8,27.6,29.34,SE,135,9.4,15.9,72,0.00,,,0.00,WUHU21623XXSP,2013-11-20 11:20:00,
2013-11-20 05:25:00,35.8,27.6,29.34,SSE,157,5.8,15.9,72,0.00,,,0.00,WUHU21623XXSP,2013-11-20 11:25:00,
2013-11-20 05:30:00,35.8,27.6,29.33,SSE,157,6.7,9.4,72,0.00,,,0.00,WUHU21623XXSP,2013-11-20 11:30:00,
2013-11-20 05:35:00,35.8,27.6,29.33,SE,135,4.3,6.7,72,0.00,,,0.00,WUHU21623XXSP,2013-11-20 11:35:00,
2013-11-20 05:40:00,35.8,27.6,29.33,SSE,157,4.9,6.5,72,0.00,,,0.00,WUHU21623XXSP,2013-11-20 11:40:00,
2013-11-20 05:45:00,35.8,27.6,29.33,ESE,112,14.3,14.3,72,0.00,,,0.00,WUHU21623XXSP,2013-11-20 11:45:00,
2013-11-20 05:50:00,35.8,27.6,29.33,South,180,10.1,14.3,72,0.00,,,0.00,WUHU21623XXSP,2013-11-20 11:50:00,
2013-11-20 05:55:00,35.6,27.6,29.33,SE,135,4.3,14.3,72,0.00,,,0.00,WUHU21623XXSP,2013-11-20 11:55:00,
2013-11-20 06:00:00,35.6,27.4,29.34,SSE,157,7.6,8.3,72,0.00,,,0.00,WUHU21623XXSP,2013-11-20 12:00:00,
2013-11-20 06:05:00,35.4,27.2,29.34,SSE,157,10.7,10.7,72,0.00,,,0.00,WUHU21623XXSP,2013-11-20 12:05:00,
2013-11-20 06:10:00,35.4,27.2,29.34,ESE,112,0.0,10.7,72,0.00,,,0.00,WUHU21623XXSP,2013-11-20 12:10:00,
2013-11-20 06:15:00,35.4,27.2,29.34,SSE,157,12.1,12.1,72,0.00,,,0.00,WUHU21623XXSP,2013-11-20 12:15:00,
2013-11-20 06:20:00,35.4,27.2,29.34,SE,135,5.6,12.1,72,0.00,,,0.00,WUHU21623XXSP,2013-11-20 12:20:00,
2013-11-20 06:25:00,35.4,27.2,29.34,SE,135,14.1,14.1,72,0.00,,,0.00,WUHU21623XXSP,2013-11-20 12:25:00,
2013-11-20 06:30:00,35.4,27.2,29.35,ESE,112,6.0,14.1,72,0.00,,,0.00,WUHU21623XXSP,2013-11-20 12:30:00,
2013-11-20 06:35:00,35.4,27.2,29.35,SSE,157,12.5,12.5,72,0.00,,,0.00,WUHU21623XXSP,2013-11-20 12:35:00,
2013-11-20 06:40:00,35.4,27.2,29.35,SE,135,5.6,12.5,72,0.00,,,0.00,WUHU21623XXSP,2013-11-20 12:40:00,
2013-11-20 06:45:00,35.4,27.2,29.35,SSE,157,6.9,8.9,72,0.00,,,0.00,WUHU21623XXSP,2013-11-20 12:45:00,
2013-11-20 06:50:00,35.4,27.2,29.35,SSE,157,11.4,11.4,72,0.00,,,0.00,WUHU21623XXSP,2013-11-20 12:50:00,
2013-11-20 06:55:00,35.4,27.2,29.35,SSE,157,5.6,11.4,72,0.00,,,0.00,WUHU21623XXSP,2013-11-20 12:55:00,
2013-11-20 07:00:00,35.4,27.2,29.35,SSE,157,6.0,9.4,72,0.00,,,0.00,WUHU21623XXSP,2013-11-20 13:00:00,
2013-11-20 07:05:00,35.4,27.2,29.35,SE,135,3.6,6.9,72,0.00,,,0.00,WUHU21623XXSP,2013-11-20 13:05:00,
2013-11-20 07:10:00,35.4,27.2,29.36,SSE,157,12.1,12.1,72,0.00,,,0.00,WUHU21623XXSP,2013-11-20 13:10:00,
2013-11-20 07:15:00,35.4,27.2,29.36,South,180,7.4,12.1,72,0.00,,,0.00,WUHU21623XXSP,2013-11-20 13:15:00,
2013-11-20 07:20:00,35.4,27.2,29.35,SE,135,10.7,10.7,72,0.00,,,0.00,WUHU21623XXSP,2013-11-20 13:20:00,
2013-11-20 07:25:00,35.4,27.6,29.36,SE,135,6.0,10.7,73,0.00,,,0.00,WUHU21623XXSP,2013-11-20 13:25:00,
2013-11-20 07:30:00,35.4,27.2,29.36,SE,135,1.8,8.1,72,0.00,,,0.00,WUHU21623XXSP,2013-11-20 13:30:00,
2013-11-20 07:35:00,35.8,27.6,29.36,SE,135,3.6,8.9,72,0.00,,,0.00,WUHU21623XXSP,2013-11-20 13:35:00,
2013-11-20 07:40:00,35.8,27.6,29.36,South,180,11.0,11.0,72,0.00,,,0.00,WUHU21623XXSP,2013-11-20 13:40:00,
2013-11-20 07:45:00,35.8,27.6,29.36,South,180,8.5,11.0,72,0.00,,,0.00,WUHU21623XXSP,2013-11-20 13:45:00,
2013-11-20 07:50:00,35.8,27.6,29.37,SSE,157,2.7,8.5,72,0.00,,,0.00,WUHU21623XXSP,2013-11-20 13:50:00,
2013-11-20 07:55:00,35.8,27.6,29.37,SSW,202,5.8,7.2,72,0.00,,,0.00,WUHU21623XXSP,2013-11-20 13:55:00,
2013-11-20 08:00:00,36.0,27.8,29.38,South,180,1.6,5.8,72,0.00,,,0.00,WUHU21623XXSP,2013-11-20 14:00:00,
2013-11-20 08:05:00,36.0,27.8,29.39,SSE,157,3.8,5.1,72,0.00,,,0.00,WUHU21623XXSP,2013-11-20 14:05:00,
2013-11-20 08:10:00,36.1,28.0,29.38,SSE,157,4.0,4.9,72,0.00,,,0.00,WUHU21623XXSP,2013-11-20 14:10:00,
2013-11-20 08:15:00,36.1,28.0,29.39,SE,135,1.3,4.9,72,0.00,,,0.00,WUHU21623XXSP,2013-11-20 14:15:00,
2013-11-20 08:20:00,36.3,28.1,29.39,SSE,157,10.3,10.3,72,0.00,,,0.00,WUHU21623XXSP,2013-11-20 14:20:00,
2013-11-20 08:25:00,36.3,28.1,29.38,SSE,157,4.5,10.3,72,0.00,,,0.00,WUHU21623XXSP,2013-11-20 14:25:00,
2013-11-20 08:30:00,36.5,28.3,29.38,SSE,157,4.5,5.8,72,0.00,,,0.00,WUHU21623XXSP,2013-11-20 14:30:00,
2013-11-20 08:35:00,36.7,28.5,29.38,SSE,157,8.3,8.3,72,0.00,,,0.00,WUHU21623XXSP,2013-11-20 14:35:00,
2013-11-20 08:40:00,36.9,28.7,29.38,ESE,112,6.7,8.3,72,0.00,,,0.00,WUHU21623XXSP,2013-11-20 14:40:00,
2013-11-20 08:45:00,36.9,28.7,29.38,SE,135,5.1,6.7,72,0.00,,,0.00,WUHU21623XXSP,2013-11-20 14:45:00,
2013-11-20 08:50:00,37.2,29.0,29.38,SSE,157,4.3,5.1,72,0.00,,,0.00,WUHU21623XXSP,2013-11-20 14:50:00,
2013-11-20 08:55:00,37.4,29.0,29.38,SSE,157,6.0,6.0,72,0.00,,,0.00,WUHU21623XXSP,2013-11-20 14:55:00,
2013-11-20 09:00:00,37.6,29.1,29.37,SSE,157,2.9,11.0,71,0.00,,,0.00,WUHU21623XXSP,2013-11-20 15:00:00,
2013-11-20 09:05:00,37.6,29.1,29.37,SSE,157,1.8,11.0,71,0.00,,,0.00,WUHU21623XXSP,2013-11-20 15:05:00,
2013-11-20 09:10:00,37.4,28.9,29.37,SSE,157,6.9,8.5,71,0.00,,,0.00,WUHU21623XXSP,2013-11-20 15:10:00,
2013-11-20 09:15:00,37.4,28.9,29.37,SSE,157,4.3,8.5,71,0.00,,,0.00,WUHU21623XXSP,2013-11-20 15:15:00,
2013-11-20 09:20:00,37.4,28.9,29.37,SSE,157,5.1,6.9,71,0.00,,,0.00,WUHU21623XXSP,2013-11-20 15:20:00,
2013-11-20 09:25:00,37.4,28.9,29.37,SSE,157,6.9,8.5,71,0.00,,,0.00,WUHU21623XXSP,2013-11-20 15:25:00,
2013-11-20 09:30:00,37.4,28.9,29.38,ESE,112,4.0,10.3,71,0.00,,,0.00,WUHU21623XXSP,2013-11-20 15:30:00,
2013-11-20 09:35:00,37.6,29.1,29.38,SE,135,13.2,13.2,71,0.00,,,0.00,WUHU21623XXSP,2013-11-20 15:35:00,
2013-11-20 09:40:00,37.8,29.2,29.37,SSE,157,6.3,13.2,71,0.00,,,0.00,WUHU21623XXSP,2013-11-20 15:40:00,
2013-11-20 09:45:00,37.8,29.2,29.37,SE,135,8.3,8.5,71,0.00,,,0.00,WUHU21623XXSP,2013-11-20 15:45:00,
2013-11-20 09:50:00,37.8,29.2,29.37,SSE,157,10.3,10.3,71,0.00,,,0.00,WUHU21623XXSP,2013-11-20 15:50:00,
2013-11-20 09:55:00,37.9,29.4,29.37,SSE,157,0.0,10.3,71,0.00,,,0.00,WUHU21623XXSP,2013-11-20 15:55:00,
2013-11-20 10:00:00,37.8,29.2,29.37,SSE,157,3.4,6.5,71,0.00,,,0.00,WUHU21623XXSP,2013-11-20 16:00:00,
2013-11-20 10:05:00,37.9,29.4,29.38,SSW,202,3.4,5.6,71,0.00,,,0.00,WUHU21623XXSP,2013-11-20 16:05:00,
2013-11-20 10:10:00,38.3,29.7,29.37,East,90,9.6,9.6,71,0.00,,,0.00,WUHU21623XXSP,2013-11-20 16:10:00,
2013-11-20 10:15:00,38.5,29.9,29.37,SSE,157,5.1,9.6,71,0.00,,,0.00,WUHU21623XXSP,2013-11-20 16:15:00,
2013-11-20 10:20:00,38.5,29.6,29.37,SSE,157,6.9,10.7,70,0.00,,,0.00,WUHU21623XXSP,2013-11-20 16:20:00,
2013-11-20 10:25:00,38.5,29.6,29.36,SSE,157,13.4,13.4,70,0.00,,,0.00,WUHU21623XXSP,2013-11-20 16:25:00,
2013-11-20 10:30:00,38.7,29.7,29.36,SSE,157,6.3,13.4,70,0.00,,,0.00,WUHU21623XXSP,2013-11-20 16:30:00,
2013-11-20 10:35:00,38.7,29.3,29.36,SSE,157,11.0,11.0,69,0.00,,,0.00,WUHU21623XXSP,2013-11-20 16:35:00,
2013-11-20 10:40:00,38.5,29.2,29.35,SE,135,11.6,11.6,69,0.00,,,0.00,WUHU21623XXSP,2013-11-20 16:40:00,
2013-11-20 10:45:00,38.8,29.5,29.35,SSE,157,1.1,11.6,69,0.00,,,0.00,WUHU21623XXSP,2013-11-20 16:45:00,
2013-11-20 10:50:00,38.8,29.5,29.35,SE,135,14.1,14.1,69,0.00,,,0.00,WUHU21623XXSP,2013-11-20 16:50:00,
2013-11-20 10:55:00,38.8,29.5,29.35,SE,135,14.1,14.1,69,0.00,,,0.00,WUHU21623XXSP,2013-11-20 16:55:00,
2013-11-20 11:00:00,39.0,29.7,29.35,SSE,157,7.6,14.1,69,0.00,,,0.00,WUHU21623XXSP,2013-11-20 17:00:00,
2013-11-20 11:05:00,39.0,29.7,29.34,SE,135,10.1,10.1,69,0.00,,,0.00,WUHU21623XXSP,2013-11-20 17:05:00,
2013-11-20 11:10:00,39.4,30.0,29.34,SSE,157,2.9,10.1,69,0.00,,,0.00,WUHU21623XXSP,2013-11-20 17:10:00,
2013-11-20 11:15:00,39.6,30.2,29.33,SE,135,6.3,6.3,69,0.00,,,0.00,WUHU21623XXSP,2013-11-20 17:15:00,
2013-11-20 11:20:00,39.6,30.2,29.33,SSE,157,5.6,6.3,69,0.00,,,0.00,WUHU21623XXSP,2013-11-20 17:20:00,
2013-11-20 11:25:00,39.7,30.4,29.32,SSE,157,6.5,7.4,68,0.00,,,0.00,WUHU21623XXSP,2013-11-20 17:25:00,
2013-11-20 11:30:00,39.7,29.8,29.31,SE,135,6.0,6.5,68,0.00,,,0.00,WUHU21623XXSP,2013-11-20 17:30:00,
2013-11-20 11:35:00,39.6,29.8,29.31,SW,225,11.9,11.9,68,0.00,,,0.00,WUHU21623XXSP,2013-11-20 17:35:00,
2013-11-20 11:40:00,39.6,29.8,29.30,SSE,157,9.2,11.9,68,0.00,,,0.00,WUHU21623XXSP,2013-11-20 17:40:00,
2013-11-20 11:45:00,39.6,29.8,29.30,SE,135,6.9,9.6,68,0.00,,,0.00,WUHU21623XXSP,2013-11-20 17:45:00,
2013-11-20 11:50:00,39.7,30.0,29.30,SSE,157,8.3,10.7,68,0.00,,,0.00,WUHU21623XXSP,2013-11-20 17:50:00,
2013-11-20 11:55:00,39.9,30.5,29.30,SSE,157,11.2,11.2,68,0.00,,,0.00,WUHU21623XXSP,2013-11-20 17:55:00,
2013-11-20 12:00:00,39.9,30.2,29.29,SE,135,8.3,11.2,68,0.00,,,0.00,WUHU21623XXSP,2013-11-20 18:00:00,
2013-11-20 12:05:00,40.1,30.3,29.28,SE,135,4.3,15.4,68,0.00,,,0.00,WUHU21623XXSP,2013-11-20 18:05:00,
2013-11-20 12:10:00,40.1,30.3,29.28,ESE,112,7.2,15.4,68,0.00,,,0.00,WUHU21623XXSP,2013-11-20 18:10:00,
2013-11-20 12:15:00,39.9,30.5,29.28,SSE,157,1.1,12.3,69,0.00,,,0.00,WUHU21623XXSP,2013-11-20 18:15:00,
2013-11-20 12:20:00,39.7,30.7,29.28,SSE,157,7.2,11.6,70,0.00,,,0.00,WUHU21623XXSP,2013-11-20 18:20:00,
2013-11-20 12:25:00,39.6,30.9,29.28,SSE,157,4.9,11.6,71,0.00,,,0.00,WUHU21623XXSP,2013-11-20 18:25:00,
2013-11-20 12:30:00,39.4,30.7,29.28,SSE,157,9.4,9.4,71,0.00,,,0.00,WUHU21623XXSP,2013-11-20 18:30:00,
2013-11-20 12:35:00,39.0,30.7,29.28,SE,135,2.9,13.9,72,0.00,,,0.00,WUHU21623XXSP,2013-11-20 18:35:00,
2013-11-20 12:40:00,39.0,30.7,29.28,SE,135,0.0,13.9,72,0.00,,,0.00,WUHU21623XXSP,2013-11-20 18:40:00,
2013-11-20 12:45:00,39.0,31.0,29.28,SE,135,9.4,9.4,73,0.00,,,0.00,WUHU21623XXSP,2013-11-20 18:45:00,
2013-11-20 12:50:00,38.8,30.9,29.28,SSE,157,2.7,9.4,73,0.00,,,0.00,WUHU21623XXSP,2013-11-20 18:50:00,
2013-11-20 12:55:00,38.8,31.2,29.28,SSE,157,8.3,9.4,74,0.00,,,0.00,WUHU21623XXSP,2013-11-20 18:55:00,
2013-11-20 13:00:00,38.7,31.0,29.28,SE,135,7.6,10.1,74,0.00,,,0.00,WUHU21623XXSP,2013-11-20 19:00:00,
2013-11-20 13:05:00,38.5,31.2,29.27,ESE,112,3.4,10.1,75,0.03,,,0.03,WUHU21623XXSP,2013-11-20 19:05:00,
2013-11-20 13:10:00,38.5,31.2,29.27,South,180,4.7,10.7,75,0.03,,,0.03,WUHU21623XXSP,2013-11-20 19:10:00,
2013-11-20 13:15:00,38.3,31.0,29.26,SSE,157,2.2,10.7,75,0.05,,,0.05,WUHU21623XXSP,2013-11-20 19:15:00,
2013-11-20 13:20:00,38.3,31.0,29.27,SE,135,9.2,9.2,75,0.05,,,0.05,WUHU21623XXSP,2013-11-20 19:20:00,
2013-11-20 13:25:00,38.3,31.4,29.26,SE,135,6.7,9.2,76,0.05,,,0.05,WUHU21623XXSP,2013-11-20 19:25:00,
2013-11-20 13:30:00,38.1,31.2,29.26,SSE,157,1.1,6.9,76,0.05,,,0.05,WUHU21623XXSP,2013-11-20 19:30:00,
2013-11-20 13:35:00,38.1,31.5,29.27,SE,135,0.0,6.7,77,0.12,,,0.12,WUHU21623XXSP,2013-11-20 19:35:00,
2013-11-20 13:40:00,38.1,31.5,29.27,South,180,2.5,7.4,77,0.12,,,0.12,WUHU21623XXSP,2013-11-20 19:40:00,
2013-11-20 13:45:00,38.1,31.5,29.28,SSE,157,3.4,7.4,77,0.12,,,0.12,WUHU21623XXSP,2013-11-20 19:45:00,
2013-11-20 13:50:00,38.1,31.5,29.28,SSE,157,8.9,8.9,77,0.15,,,0.15,WUHU21623XXSP,2013-11-20 19:50:00,
2013-11-20 13:55:00,38.3,32.1,29.28,South,180,7.2,8.9,78,0.15,,,0.15,WUHU21623XXSP,2013-11-20 19:55:00,
2013-11-20 14:00:00,38.3,32.1,29.28,South,180,4.5,7.2,78,0.17,,,0.17,WUHU21623XXSP,2013-11-20 20:00:00,
2013-11-20 14:05:00,38.3,32.1,29.28,SSE,157,5.1,8.9,78,0.15,,,0.17,WUHU21623XXSP,2013-11-20 20:05:00,
2013-11-20 14:10:00,38.1,31.9,29.28,SSW,202,2.9,8.9,78,0.15,,,0.17,WUHU21623XXSP,2013-11-20 20:10:00,
2013-11-20 14:15:00,38.1,31.9,29.27,SE,135,4.3,5.6,78,0.12,,,0.17,WUHU21623XXSP,2013-11-20 20:15:00,
2013-11-20 14:20:00,38.3,32.1,29.26,SE,135,4.5,5.6,78,0.12,,,0.17,WUHU21623XXSP,2013-11-20 20:20:00,
2013-11-20 14:25:00,38.1,31.9,29.26,SE,135,5.1,5.1,78,0.12,,,0.17,WUHU21623XXSP,2013-11-20 20:25:00,
2013-11-20 14:30:00,38.3,32.4,29.26,SSE,157,6.7,6.7,79,0.05,,,0.17,WUHU21623XXSP,2013-11-20 20:30:00,
2013-11-20 14:35:00,38.1,32.2,29.24,SSE,157,5.1,7.2,79,0.05,,,0.17,WUHU21623XXSP,2013-11-20 20:35:00,
2013-11-20 14:40:00,38.1,32.2,29.24,SSE,157,7.8,7.8,79,0.08,,,0.20,WUHU21623XXSP,2013-11-20 20:40:00,
2013-11-20 14:45:00,38.1,32.2,29.24,SE,135,0.0,7.8,79,0.08,,,0.20,WUHU21623XXSP,2013-11-20 20:45:00,
2013-11-20 14:50:00,38.1,32.2,29.24,SSE,157,1.3,4.0,79,0.08,,,0.23,WUHU21623XXSP,2013-11-20 20:50:00,
2013-11-20 14:55:00,38.1,32.2,29.24,SE,135,4.7,4.7,79,0.05,,,0.23,WUHU21623XXSP,2013-11-20 20:55:00,
2013-11-20 15:00:00,37.9,32.0,29.24,SSE,157,10.5,10.5,79,0.05,,,0.23,WUHU21623XXSP,2013-11-20 21:00:00,
2013-11-20 15:05:00,37.9,32.0,29.24,SE,135,5.1,10.5,79,0.05,,,0.23,WUHU21623XXSP,2013-11-20 21:05:00,
2013-11-20 15:10:00,37.9,32.4,29.24,SSE,157,0.7,8.5,80,0.05,,,0.23,WUHU21623XXSP,2013-11-20 21:10:00,
2013-11-20 15:15:00,37.8,32.2,29.24,SSE,157,2.7,9.2,80,0.05,,,0.23,WUHU21623XXSP,2013-11-20 21:15:00,
2013-11-20 15:20:00,37.8,32.2,29.24,SE,135,3.6,9.2,80,0.05,,,0.23,WUHU21623XXSP,2013-11-20 21:20:00,
2013-11-20 15:25:00,37.6,32.0,29.24,South,180,7.4,7.4,80,0.05,,,0.23,WUHU21623XXSP,2013-11-20 21:25:00,
2013-11-20 15:30:00,37.6,32.0,29.25,SSE,157,7.6,7.6,80,0.05,,,0.23,WUHU21623XXSP,2013-11-20 21:30:00,
2013-11-20 15:35:00,37.6,32.0,29.24,SSE,157,3.6,7.6,80,0.05,,,0.23,WUHU21623XXSP,2013-11-20 21:35:00,
2013-11-20 15:40:00,37.8,32.2,29.25,SSE,157,5.6,6.0,80,0.05,,,0.25,WUHU21623XXSP,2013-11-20 21:40:00,
2013-11-20 15:45:00,37.8,32.2,29.25,South,180,0.0,6.0,80,0.05,,,0.25,WUHU21623XXSP,2013-11-20 21:45:00,
2013-11-20 15:50:00,37.6,32.0,29.26,South,180,0.0,3.4,80,0.03,,,0.25,WUHU21623XXSP,2013-11-20 21:50:00,
2013-11-20 15:55:00,37.8,32.2,29.26,South,180,0.0,0.0,80,0.03,,,0.25,WUHU21623XXSP,2013-11-20 21:55:00,
2013-11-20 16:00:00,37.6,32.0,29.26,South,180,0.0,0.0,80,0.03,,,0.25,WUHU21623XXSP,2013-11-20 22:00:00,
2013-11-20 16:05:00,37.6,32.0,29.26,SSE,157,0.0,0.0,80,0.03,,,0.25,WUHU21623XXSP,2013-11-20 22:05:00,
2013-11-20 16:10:00,37.8,32.2,29.26,SSE,157,0.0,0.0,80,0.03,,,0.25,WUHU21623XXSP,2013-11-20 22:10:00,
2013-11-20 16:15:00,37.8,32.2,29.26,SSE,157,0.0,0.0,80,0.03,,,0.25,WUHU21623XXSP,2013-11-20 22:15:00,
2013-11-20 16:20:00,37.8,32.2,29.27,SSE,157,0.0,0.0,80,0.03,,,0.25,WUHU21623XXSP,2013-11-20 22:20:00,
2013-11-20 16:25:00,37.8,32.2,29.27,SSE,157,0.0,0.0,80,0.03,,,0.25,WUHU21623XXSP,2013-11-20 22:25:00,
2013-11-20 16:30:00,37.8,32.2,29.26,SE,135,0.0,0.0,80,0.05,,,0.28,WUHU21623XXSP,2013-11-20 22:30:00,
2013-11-20 16:35:00,37.6,32.0,29.26,SE,135,0.0,0.0,80,0.05,,,0.28,WUHU21623XXSP,2013-11-20 22:35:00,
2013-11-20 16:40:00,37.6,32.0,29.26,SE,135,0.0,0.0,80,0.03,,,0.28,WUHU21623XXSP,2013-11-20 22:40:00,
2013-11-20 16:45:00,37.8,32.5,29.26,SE,135,0.0,0.9,81,0.05,,,0.31,WUHU21623XXSP,2013-11-20 22:45:00,
2013-11-20 16:50:00,37.8,32.5,29.26,SE,135,0.0,0.9,81,0.05,,,0.31,WUHU21623XXSP,2013-11-20 22:50:00,
2013-11-20 16:55:00,37.8,32.5,29.26,SE,135,0.0,0.0,81,0.05,,,0.31,WUHU21623XXSP,2013-11-20 22:55:00,
2013-11-20 17:00:00,37.8,32.5,29.26,SE,135,0.0,0.0,81,0.05,,,0.31,WUHU21623XXSP,2013-11-20 23:00:00,
2013-11-20 17:05:00,37.8,32.5,29.26,SE,135,0.0,0.0,81,0.05,,,0.31,WUHU21623XXSP,2013-11-20 23:05:00,
2013-11-20 17:10:00,37.8,32.5,29.26,SE,135,0.0,0.0,81,0.08,,,0.34,WUHU21623XXSP,2013-11-20 23:10:00,
2013-11-20 17:15:00,37.8,32.5,29.26,SSE,157,1.1,1.1,81,0.08,,,0.34,WUHU21623XXSP,2013-11-20 23:15:00,
2013-11-20 17:20:00,37.8,32.5,29.25,SE,135,1.1,1.1,82,0.08,,,0.34,WUHU21623XXSP,2013-11-20 23:20:00,
2013-11-20 17:25:00,37.8,32.8,29.25,SE,135,0.0,1.1,82,0.08,,,0.34,WUHU21623XXSP,2013-11-20 23:25:00,
2013-11-20 17:30:00,37.6,32.8,29.24,SE,135,0.0,0.0,81,0.05,,,0.34,WUHU21623XXSP,2013-11-20 23:30:00,
2013-11-20 17:35:00,37.8,32.3,29.25,SE,135,2.5,2.5,81,0.05,,,0.34,WUHU21623XXSP,2013-11-20 23:35:00,
2013-11-20 17:40:00,37.6,32.6,29.25,SSE,157,7.4,7.4,82,0.03,,,0.34,WUHU21623XXSP,2013-11-20 23:40:00,
2013-11-20 17:45:00,37.6,32.6,29.25,SE,135,0.0,7.4,82,0.05,,,0.36,WUHU21623XXSP,2013-11-20 23:45:00,
2013-11-20 17:50:00,37.6,32.6,29.26,SE,135,0.0,0.0,82,0.05,,,0.36,WUHU21623XXSP,2013-11-20 23:50:00,
2013-11-20 17:55:00,37.6,32.6,29.26,SE,135,2.7,2.7,82,0.05,,,0.36,WUHU21623XXSP,2013-11-20 23:55:00,
2013-11-20 18:00:00,37.8,32.6,29.25,SE,135,0.0,2.7,82,0.05,,,0.36,WUHU21623XXSP,2013-11-21 00:00:00,
2013-11-20 18:05:00,37.6,32.6,29.25,SSE,157,8.1,8.1,82,0.03,,,0.36,WUHU21623XXSP,2013-11-21 00:05:00,
2013-11-20 18:10:00,37.8,32.8,29.25,SE,135,2.7,8.1,82,0.03,,,0.36,WUHU21623XXSP,2013-11-21 00:10:00,
2013-11-20 18:15:00,37.8,32.8,29.25,ESE,112,0.0,8.1,82,0.03,,,0.36,WUHU21623XXSP,2013-11-21 00:15:00,
2013-11-20 18:20:00,37.8,33.0,29.26,ESE,112,0.0,0.0,83,0.03,,,0.36,WUHU21623XXSP,2013-11-21 00:20:00,
2013-11-20 18:25:00,37.8,33.0,29.27,South,180,3.8,3.8,83,0.03,,,0.36,WUHU21623XXSP,2013-11-21 00:25:00,
2013-11-20 18:30:00,37.8,33.0,29.27,SSE,157,10.5,10.5,83,0.03,,,0.36,WUHU21623XXSP,2013-11-21 00:30:00,
2013-11-20 18:35:00,37.8,33.0,29.26,ENE,67,0.0,10.5,83,0.03,,,0.36,WUHU21623XXSP,2013-11-21 00:35:00,
2013-11-20 18:40:00,37.9,33.2,29.27,SSE,157,6.0,6.0,83,0.00,,,0.36,WUHU21623XXSP,2013-11-21 00:40:00,
2013-11-20 18:45:00,37.9,33.2,29.25,SE,135,4.5,7.4,83,0.00,,,0.36,WUHU21623XXSP,2013-11-21 00:45:00,
2013-11-20 18:50:00,37.9,33.2,29.27,SE,135,6.3,7.4,83,0.00,,,0.36,WUHU21623XXSP,2013-11-21 00:50:00,
2013-11-20 18:55:00,37.9,33.2,29.27,SE,135,6.0,6.3,83,0.00,,,0.36,WUHU21623XXSP,2013-11-21 00:55:00,
2013-11-20 19:00:00,37.9,33.2,29.27,SE,135,1.3,6.0,83,0.00,,,0.36,WUHU21623XXSP,2013-11-21 01:00:00,
2013-11-20 19:05:00,37.9,33.2,29.27,SSE,157,4.9,6.0,83,0.00,,,0.36,WUHU21623XXSP,2013-11-21 01:05:00,
2013-11-20 19:10:00,37.9,33.2,29.28,SSE,157,0.0,4.9,83,0.00,,,0.36,WUHU21623XXSP,2013-11-21 01:10:00,
2013-11-20 19:15:00,37.9,33.2,29.28,SE,135,2.0,2.7,83,0.00,,,0.36,WUHU21623XXSP,2013-11-21 01:15:00,
2013-11-20 19:20:00,37.9,33.2,29.28,SSE,157,3.6,3.6,83,0.00,,,0.36,WUHU21623XXSP,2013-11-21 01:20:00,
2013-11-20 19:25:00,38.1,33.4,29.28,SSE,157,3.8,7.2,83,0.00,,,0.36,WUHU21623XXSP,2013-11-21 01:25:00,
2013-11-20 19:30:00,38.1,33.7,29.28,SE,135,4.9,7.2,84,0.00,,,0.36,WUHU21623XXSP,2013-11-21 01:30:00,
2013-11-20 19:35:00,38.1,33.7,29.28,SSE,157,1.8,7.2,84,0.00,,,0.36,WUHU21623XXSP,2013-11-21 01:35:00,
2013-11-20 19:40:00,38.1,33.7,29.28,South,180,3.6,4.9,84,0.00,,,0.36,WUHU21623XXSP,2013-11-21 01:40:00,
2013-11-20 19:45:00,38.1,33.7,29.28,SE,135,0.7,6.9,84,0.00,,,0.36,WUHU21623XXSP,2013-11-21 01:45:00,
2013-11-20 19:50:00,38.1,33.7,29.28,SE,135,8.1,8.1,84,0.00,,,0.36,WUHU21623XXSP,2013-11-21 01:50:00,
2013-11-20 19:56:00,38.3,33.9,29.28,SE,135,5.1,8.1,84,0.00,,,0.36,WUHU21623XXSP,2013-11-21 01:56:00,
2013-11-20 20:01:00,38.3,33.9,29.28,SE,135,4.7,5.4,84,0.00,,,0.36,WUHU21623XXSP,2013-11-21 02:01:00,
2013-11-20 20:05:00,38.3,33.9,29.28,South,180,0.0,5.6,84,0.00,,,0.36,WUHU21623XXSP,2013-11-21 02:05:00,
2013-11-20 20:10:00,38.3,33.9,29.28,SSE,157,8.3,8.3,84,0.00,,,0.36,WUHU21623XXSP,2013-11-21 02:10:00,
2013-11-20 20:15:00,38.3,33.9,29.28,SE,135,0.0,8.3,84,0.00,,,0.36,WUHU21623XXSP,2013-11-21 02:15:00,
2013-11-20 20:20:00,38.3,33.9,29.28,SSE,157,2.9,8.3,84,0.00,,,0.36,WUHU21623XXSP,2013-11-21 02:20:00,
2013-11-20 20:25:00,38.3,33.9,29.28,SSE,157,0.0,4.9,84,0.00,,,0.36,WUHU21623XXSP,2013-11-21 02:25:00,
2013-11-20 20:30:00,38.3,33.9,29.28,SE,135,0.0,8.7,84,0.00,,,0.36,WUHU21623XXSP,2013-11-21 02:30:00,
2013-11-20 20:35:00,38.3,33.9,29.28,SSE,157,6.5,8.7,84,0.00,,,0.36,WUHU21623XXSP,2013-11-21 02:35:00,
2013-11-20 20:40:00,38.3,33.9,29.28,SE,135,4.3,6.5,84,0.00,,,0.36,WUHU21623XXSP,2013-11-21 02:40:00,
2013-11-20 20:46:00,38.5,34.1,29.28,SSE,157,0.7,4.3,84,0.00,,,0.36,WUHU21623XXSP,2013-11-21 02:46:00,
2013-11-20 20:51:00,38.5,34.1,29.28,SSE,157,0.0,3.8,84,0.00,,,0.36,WUHU21623XXSP,2013-11-21 02:51:00,
2013-11-20 20:56:00,38.5,34.1,29.28,South,180,4.9,5.8,84,0.00,,,0.36,WUHU21623XXSP,2013-11-21 02:56:00,
2013-11-20 21:01:00,38.5,34.1,29.28,SSE,157,0.0,5.8,84,0.00,,,0.36,WUHU21623XXSP,2013-11-21 03:01:00,
2013-11-20 21:06:00,38.5,34.1,29.28,South,180,2.7,2.7,84,0.00,,,0.36,WUHU21623XXSP,2013-11-21 03:06:00,
2013-11-20 21:11:00,38.5,34.1,29.28,SE,135,5.1,5.1,84,0.00,,,0.36,WUHU21623XXSP,2013-11-21 03:11:00,
2013-11-20 21:16:00,38.5,34.1,29.28,SSE,157,0.0,5.8,84,0.00,,,0.36,WUHU21623XXSP,2013-11-21 03:16:00,
2013-11-20 21:21:00,38.5,34.1,29.28,SSE,157,0.0,5.8,84,0.00,,,0.36,WUHU21623XXSP,2013-11-21 03:21:00,
2013-11-20 21:26:00,38.7,34.2,29.28,SSE,157,2.0,2.0,84,0.00,,,0.36,WUHU21623XXSP,2013-11-21 03:26:00,
2013-11-20 21:31:00,38.8,34.4,29.28,SE,135,0.0,2.2,84,0.00,,,0.36,WUHU21623XXSP,2013-11-21 03:31:00,
2013-11-20 21:36:00,38.8,34.4,29.28,SSE,157,0.0,2.2,84,0.00,,,0.36,WUHU21623XXSP,2013-11-21 03:36:00,
2013-11-20 21:41:00,38.8,34.4,29.28,SSE,157,0.0,2.2,84,0.00,,,0.36,WUHU21623XXSP,2013-11-21 03:41:00,
2013-11-20 21:46:00,38.8,34.1,29.28,SSW,202,2.7,6.7,83,0.00,,,0.36,WUHU21623XXSP,2013-11-21 03:46:00,
2013-11-20 21:51:00,39.0,34.6,29.28,SSE,157,1.1,6.7,84,0.00,,,0.36,WUHU21623XXSP,2013-11-21 03:51:00,
2013-11-20 21:56:00,39.0,34.6,29.28,SSE,157,0.0,6.5,84,0.00,,,0.36,WUHU21623XXSP,2013-11-21 03:56:00,
2013-11-20 22:01:00,39.0,34.6,29.28,SSE,157,0.0,6.5,84,0.00,,,0.36,WUHU21623XXSP,2013-11-21 04:01:00,
2013-11-20 22:06:00,39.0,34.6,29.27,SE,135,0.0,5.1,84,0.00,,,0.36,WUHU21623XXSP,2013-11-21 04:06:00,
2013-11-20 22:11:00,39.0,34.6,29.27,SSE,157,2.0,2.2,84,0.00,,,0.36,WUHU21623XXSP,2013-11-21 04:11:00,
2013-11-20 22:16:00,39.0,34.6,29.27,SE,135,0.0,2.0,84,0.00,,,0.36,WUHU21623XXSP,2013-11-21 04:16:00,
2013-11-20 22:21:00,39.0,34.6,29.27,SE,135,4.0,4.0,84,0.00,,,0.36,WUHU21623XXSP,2013-11-21 04:21:00,
2013-11-20 22:26:00,39.0,34.6,29.28,SE,135,0.0,6.9,84,0.00,,,0.36,WUHU21623XXSP,2013-11-21 04:26:00,
2013-11-20 22:31:00,39.0,34.6,29.27,SE,135,0.0,6.9,84,0.00,,,0.36,WUHU21623XXSP,2013-11-21 04:31:00,
2013-11-20 22:56:00,39.4,34.7,29.26,SE,135,0.0,0.0,83,0.00,,,0.36,WUHU21623XXSP,2013-11-21 04:56:00,
2013-11-20 23:56:00,39.7,35.0,29.27,SSE,158,2.9,2.9,83,0.00,,,0.36,WUHU21623XXSP,2013-11-21 05:56:00,